Alexander City, AL

5:14 AM CDT on October 16, 2019 (GMT -0500)
Russell

Weather History for KALX - September, 2019

Change the Weather History Date:

Wednesday, September 18, 2019

  Actual Average (KAUO) Record (KAUO)
Temperature  
Mean Temperature 81 °F -  
Max Temperature 95 °F 83 °F 97 °F (2010)
Min Temperature 67 °F 63 °F 55 °F (1967)
Cooling Degree Days 16    
Growing Degree Days 31 (Base 50)    
Moisture  
Dew Point 66 °F    
Average Humidity 61    
Maximum Humidity 92    
Minimum Humidity 31    
Precipitation  
Precipitation 0.00 in - - ()
Sea Level Pressure  
Sea Level Pressure 29.99 in    
Wind  
Wind Speed 2 mph (NE)    
Max Wind Speed 10 mph    
Max Gust Speed 17 mph    
Visibility 10 miles    
Events      
Averages and records for this station are not official NWS values.
T = Trace of Precipitation, MM = Missing Value Source: NWS Daily Summary

Daily Weather History Graph

Daily Weather History Graph

Search for Another Location

Airport or City:

Astronomy

Sep. 18, 2019 Rise Set
Actual Time 6:29 AM CDT 6:46 PM CDT
Civil Twilight 6:04 AM CDT 7:10 PM CDT
Nautical Twilight 5:35 AM CDT 7:39 PM CDT
Astronomical Twilight 5:06 AM CDT 8:09 PM CDT
Moon 9:33 PM CDT (9/18) 10:20 AM CDT (9/18)
Length of Visible Light 13h 06m
Length of Day
12h 16m
Waning Gibbous, 82% of the Moon is Illuminated
Sep 18
Waning Gibbous
Sep 21
Last Quarter
Sep 28
New
Oct 5
First Quarter
Oct 13
Full

Hourly Weather History & Observations

Time (CDT) Temp. Heat Index Dew Point Humidity Pressure Visibility Wind Dir Wind Speed Gust Speed Precip Events Conditions
12:15 AM 74.3 °F - 67.1 °F 78% 29.97 in 10.0 mi Calm Calm - N/A   Clear
12:35 AM 73.4 °F - 66.4 °F 79% 29.97 in 10.0 mi Calm Calm - N/A   Clear
12:55 AM 73.6 °F - 66.7 °F 79% 29.97 in 10.0 mi Calm Calm - N/A   Clear
1:15 AM 73.2 °F - 66.6 °F 80% 29.97 in 10.0 mi Calm Calm - N/A   Clear
1:35 AM 72.3 °F - 66.7 °F 83% 29.97 in 10.0 mi Calm Calm - N/A   Clear
1:55 AM 72.0 °F - 68.2 °F 88% 29.97 in 10.0 mi Calm Calm - N/A   Clear
2:15 AM 73.9 °F - 66.7 °F 78% 29.96 in 10.0 mi Calm Calm - N/A   Clear
2:35 AM 72.0 °F - 67.3 °F 85% 29.96 in 10.0 mi Calm Calm - N/A   Clear
2:55 AM 71.1 °F - 66.6 °F 86% 29.97 in 10.0 mi Calm Calm - N/A   Clear
3:15 AM 72.0 °F - 66.2 °F 82% 29.96 in 10.0 mi Calm Calm - N/A   Clear
3:35 AM 73.8 °F - 65.5 °F 75% 29.96 in 10.0 mi North 3.5 mph - N/A   Clear
3:55 AM 72.0 °F - 66.0 °F 81% 29.97 in 10.0 mi Calm Calm - N/A   Clear
4:15 AM 70.3 °F - 66.2 °F 87% 29.97 in 10.0 mi Calm Calm - N/A   Clear
4:35 AM 70.0 °F - 66.0 °F 87% 29.97 in 10.0 mi Calm Calm - N/A   Clear
4:55 AM 69.4 °F - 66.2 °F 89% 29.97 in 10.0 mi Calm Calm - N/A   Clear
5:15 AM 69.8 °F - 66.2 °F 88% 29.98 in 10.0 mi Calm Calm - N/A   Clear
5:35 AM 69.3 °F - 66.2 °F 90% 29.98 in 10.0 mi Calm Calm - N/A   Clear
5:55 AM 68.2 °F - 65.7 °F 92% 29.99 in 10.0 mi Calm Calm - N/A   Clear
6:15 AM 68.4 °F - 65.5 °F 90% 29.99 in 10.0 mi Calm Calm - N/A   Clear
6:35 AM 67.6 °F - 65.3 °F 92% 29.99 in 10.0 mi Calm Calm - N/A   Clear
7:15 AM 69.8 °F - 66.4 °F 89% 30.00 in 10.0 mi Calm Calm - N/A   Clear
7:35 AM 70.5 °F - 66.6 °F 87% 30.00 in 10.0 mi Calm Calm - N/A   Clear
7:55 AM 73.2 °F - 67.6 °F 83% 30.00 in 10.0 mi Calm Calm - N/A   Clear
8:15 AM 77.2 °F - 66.7 °F 70% 30.00 in 10.0 mi Calm Calm - N/A   Clear
8:35 AM 79.5 °F - 67.5 °F 66% 30.00 in 10.0 mi Calm Calm - N/A   Clear
8:55 AM 82.4 °F 84.2 °F 65.5 °F 56% 30.00 in 10.0 mi Calm Calm - N/A   Clear
9:35 AM 85.5 °F 87.6 °F 66.2 °F 52% 30.01 in 10.0 mi East 4.6 mph - N/A   Clear
9:55 AM 86.4 °F 88.7 °F 66.2 °F 51% 30.01 in 10.0 mi NE 3.5 mph - N/A   Clear
10:15 AM 87.4 °F 90.5 °F 67.1 °F 51% 30.02 in 10.0 mi East 5.8 mph - N/A   Clear
10:35 AM 87.8 °F 90.7 °F 67.1 °F 50% 30.02 in 10.0 mi East 3.5 mph - N/A   Clear
10:55 AM 89.2 °F 92.8 °F 67.8 °F 49% 30.02 in 10.0 mi Calm Calm - N/A   Clear
11:15 AM 89.8 °F 92.5 °F 66.6 °F 46% 30.02 in 10.0 mi Calm Calm - N/A   Clear
11:35 AM 91.4 °F 93.6 °F 65.5 °F 42% 30.02 in 10.0 mi Calm Calm - N/A   Clear
11:55 AM 91.8 °F 93.4 °F 64.4 °F 40% 30.02 in 10.0 mi Calm Calm - N/A   Clear
12:15 PM 92.7 °F 94.4 °F 64.2 °F 39% 30.01 in 10.0 mi Calm Calm - N/A   Clear
12:35 PM 93.4 °F 96.1 °F 65.5 °F 40% 30.01 in 10.0 mi NNW 9.2 mph - N/A   Clear
12:55 PM 93.7 °F 95.8 °F 64.9 °F 38% 30.01 in 10.0 mi NNE 4.6 mph - N/A   Clear
1:15 PM 93.9 °F 95.2 °F 63.1 °F 36% 30.00 in 10.0 mi NW 6.9 mph - N/A   Clear
1:35 PM 94.6 °F 95.5 °F 62.2 °F 34% 30.00 in 10.0 mi NW 6.9 mph - N/A   Clear
1:55 PM 95.0 °F 95.6 °F 61.9 °F 33% 29.99 in 10.0 mi NNE 4.6 mph - N/A   Clear
2:15 PM 95.4 °F 96.2 °F 61.7 °F 33% 29.98 in 10.0 mi North 6.9 mph 10.4 mph N/A   Clear
2:35 PM 95.5 °F 96.5 °F 62.1 °F 33% 29.98 in 10.0 mi North 8.1 mph - N/A   Clear
2:55 PM 95.2 °F 95.9 °F 61.7 °F 33% 29.97 in 10.0 mi North 8.1 mph - N/A   Clear
3:15 PM 95.2 °F 95.9 °F 61.7 °F 33% 29.97 in 10.0 mi NNE 4.6 mph - N/A   Clear
3:35 PM 95.4 °F 96.2 °F 61.9 °F 33% 29.96 in 10.0 mi North 5.8 mph - N/A   Clear
3:55 PM 95.7 °F 96.7 °F 62.2 °F 33% 29.96 in 10.0 mi North 9.2 mph - N/A   Clear
4:15 PM 95.5 °F 96.5 °F 62.6 °F 33% 29.96 in 10.0 mi NNE 6.9 mph - N/A   Clear
4:35 PM 95.2 °F 95.9 °F 61.7 °F 33% 29.96 in 10.0 mi NNW 8.1 mph - N/A   Clear
4:55 PM 95.7 °F 95.9 °F 61.0 °F 31% 29.95 in 10.0 mi North 9.2 mph - N/A   Clear
5:15 PM 94.8 °F 94.9 °F 60.8 °F 32% 29.95 in 10.0 mi North 9.2 mph - N/A   Clear
5:35 PM 94.5 °F 94.8 °F 61.5 °F 33% 29.95 in 10.0 mi North 8.1 mph - N/A   Clear
5:55 PM 93.4 °F 94.3 °F 62.4 °F 36% 29.96 in 10.0 mi NNE 4.6 mph - N/A   Clear
6:15 PM 92.7 °F 93.2 °F 62.2 °F 36% 29.96 in 10.0 mi North 6.9 mph - N/A   Clear
6:55 PM 89.2 °F 89.9 °F 62.8 °F 41% 29.97 in 10.0 mi NE 4.6 mph - N/A   Clear
7:15 PM 86.5 °F 88.7 °F 66.0 °F 50% 29.98 in 10.0 mi East 3.5 mph - N/A   Clear
7:35 PM 85.5 °F 88.5 °F 67.5 °F 55% 29.99 in 10.0 mi East 3.5 mph - N/A   Clear
7:55 PM 84.9 °F 87.9 °F 67.5 °F 56% 30.00 in 10.0 mi ENE 4.6 mph - N/A   Clear
8:15 PM 84.4 °F 87.6 °F 68.4 °F 58% 30.01 in 10.0 mi ENE 8.1 mph - N/A   Clear
8:35 PM 83.5 °F 87.2 °F 69.3 °F 62% 30.02 in 10.0 mi ENE 10.4 mph 17.3 mph N/A   Clear
8:55 PM 82.8 °F 86.7 °F 69.8 °F 65% 30.03 in 10.0 mi ENE 5.8 mph 16.1 mph N/A   Clear
9:15 PM 81.9 °F 85.6 °F 69.8 °F 67% 30.03 in 10.0 mi East 6.9 mph - N/A   Clear
9:35 PM 81.5 °F 84.9 °F 69.8 °F 67% 30.04 in 10.0 mi East 5.8 mph - N/A   Clear
9:55 PM 81.0 °F 84.4 °F 70.0 °F 69% 30.05 in 10.0 mi East 8.1 mph - N/A   Clear
10:15 PM 80.6 °F 83.9 °F 70.0 °F 70% 30.05 in 10.0 mi East 5.8 mph - N/A   Clear
10:35 PM 79.7 °F - 70.0 °F 72% 30.05 in 10.0 mi East 4.6 mph - N/A   Clear
10:55 PM 79.2 °F - 69.8 °F 73% 30.05 in 10.0 mi East 4.6 mph - N/A   Clear
11:15 PM 78.6 °F - 69.4 °F 73% 30.06 in 10.0 mi East 3.5 mph - N/A   Clear
11:35 PM 78.1 °F - 69.3 °F 74% 30.06 in 10.0 mi Calm Calm - N/A   Clear
11:55 PM 77.9 °F - 68.9 °F 74% 30.06 in 10.0 mi East 5.8 mph - N/A   Clear